Change the Weather History Date:

Wednesday, October 31, 2012

  Actual Average Record
Temperature  
Mean Temperature 69 °F -  
Max Temperature 86 °F 82 °F 87 °F (2001)
Min Temperature 52 °F 57 °F 51 °F (2003)
Cooling Degree Days 4    
Growing Degree Days 19 (Base 50)    
Moisture  
Dew Point 60 °F    
Average Humidity 69    
Maximum Humidity 94    
Minimum Humidity 28    
Precipitation  
Precipitation 0.00 in - - ()
Sea Level Pressure  
Sea Level Pressure 29.96 in    
Wind  
Wind Speed 1 mph ()    
Max Wind Speed 7 mph    
Max Gust Speed -    
Visibility 1.7 miles    
Events Fog    
Averages and records for this station are not official NWS values.
T = Trace of Precipitation, MM = Missing Value Source: Averaged Metar Reports

Daily Weather History Graph

Daily Weather History Graph

Search for Another Location

Airport or City:

Trip Planner

Search our weather history database for the weather conditions in past years. The results will help you decide how hot, cold, wet, or windy it might be!

Date:

Astronomy

Oct. 31, 2012 Rise Set
Actual Time 6:46 AM IST 5:42 PM IST
Civil Twilight 6:21 AM IST 6:07 PM IST
Nautical Twilight 5:52 AM IST 6:36 PM IST
Astronomical Twilight 5:23 AM IST 7:04 PM IST
Moon 6:40 PM IST 7:56 AM IST
Length of Visible Light 11h 46m
Length of Day
10h 55m
Full, 98% of the Moon is Illuminated
Oct 31
Full
Nov 7
Last Quarter
Nov 14
New
Nov 20
First Quarter
Nov 28
Full

Hourly Weather History & Observations

Time (IST) Temp. Heat Index Dew Point Humidity Pressure Visibility Wind Dir Wind Speed Gust Speed Precip Events Conditions
12:00 AM 68.0 °F - 62.6 °F 83% 29.92 in 1.2 mi Calm Calm - N/A   Mist
12:30 AM 68.0 °F - 62.6 °F 83% 29.92 in 1.2 mi Calm Calm - N/A   Mist
2:30 AM 66.2 °F - 62.6 °F 88% 29.95 in 1.0 mi Calm Calm - N/A   Mist
3:00 AM 66.2 °F - 62.6 °F 88% 29.95 in 1.0 mi Calm Calm - N/A   Mist
3:30 AM 66.2 °F - 62.6 °F 88% 29.95 in 1.0 mi Calm Calm - N/A   Mist
4:30 AM 66.2 °F - 62.6 °F 88% 29.95 in 1.0 mi Calm Calm - N/A   Mist
5:00 AM 66.2 °F - 62.6 °F 88% 29.95 in 1.0 mi Calm Calm - N/A   Mist
5:30 AM 57.2 °F - 55.4 °F 94% 29.98 in 0.7 mi Calm Calm - N/A   Mist
7:30 AM 55.4 °F - 53.6 °F 94% 29.98 in 0.5 mi Calm Calm - N/A Fog Fog
8:30 AM 58 °F - 55 °F 85% 30.00 in 1 mi Calm Calm - -   Mist
8:30 AM 57.2 °F - 55.4 °F 94% 30.01 in 0.7 mi Calm Calm - N/A   Mist
10:00 AM 66.2 °F - 59.0 °F 78% 30.01 in 1.6 mi Calm Calm - N/A   Mist
11:30 AM 73 °F - 62 °F 61% 29.99 in 2 mi Calm Calm - -   Haze
1:00 PM 77.0 °F - 62.6 °F 61% 29.98 in 3.1 mi West 6.9 mph - N/A   Haze
1:30 PM 78.8 °F - 62.6 °F 57% 29.98 in 3.1 mi West 4.6 mph - N/A   Haze
2:30 PM 83 °F - 55 °F 28% 29.91 in 2 mi West 3.5 mph - -   Smoke
2:30 PM 82.4 °F 81.7 °F 55.4 °F 39% 29.95 in 3.1 mi West 3.5 mph - N/A   Smoke
3:30 PM 86.0 °F 84.5 °F 55.4 °F 35% 29.95 in 3.1 mi West 4.6 mph - N/A   Smoke
4:30 PM 84.2 °F 84.4 °F 60.8 °F 45% 29.92 in 3.1 mi West 3.5 mph - N/A   Smoke
5:30 PM 81 °F - 64 °F 46% 29.88 in 2 mi West 3.5 mph - -   Smoke
7:00 PM 80.6 °F 82.3 °F 64.4 °F 58% 29.92 in 2.8 mi West 4.6 mph - N/A   Smoke
7:30 PM 77.0 °F - 62.6 °F 61% 29.95 in 2.5 mi Calm Calm - N/A   Haze
8:00 PM 77.0 °F - 62.6 °F 61% 29.95 in 2.5 mi Calm Calm - N/A   Haze
8:30 PM 74 °F - 62 °F 56% 29.94 in 1 mi Calm Calm - -   Haze
9:30 PM 71.6 °F - 60.8 °F 69% 29.98 in 1.6 mi Calm Calm - N/A   Haze
10:00 PM 71.6 °F - 60.8 °F 69% 29.98 in 1.2 mi Calm Calm - N/A   Haze
11:30 PM 68 °F - 60 °F 70% 29.97 in 1 mi Calm Calm - -   Mist
11:30 PM 68.0 °F - 60.8 °F 78% 29.98 in 1.0 mi Calm Calm - N/A   Mist